Regional Weather Roundup
Issued by NWS

Home | Current Version | Previous Version | Graphics & Text | Print | Product List | Glossary On
Versions: 1 2 3 4 5 6 7 8 9 10 11 12 13 14 15 16 17 18 19 20 21 22 23 24 25 26 27 28 29 30 31 32 33 34 35 36 37 38 39 40 41 42 43 44 45 46 47 48 49 50
000
ASUS43 KMPX 111310
RWRMN
WEATHER ROUNDUP FOR MINNESOTA
NATIONAL WEATHER SERVICE TWIN CITIES/CHANHASSEN MN
700 AM CST MON DEC 11 2017


NOTE: "FAIR" INDICATES FEW OR NO CLOUDS BELOW 12,000 FEET WITH NO
SIGNIFICANT WEATHER AND/OR OBSTRUCTIONS TO VISIBILITY. N/A MEANS
CURRENT SKY AND/OR WEATHER CONDITIONS ARE NOT AVAILABLE.

MNZ060>063-068>070-111400-
   Twin Cities Metro

CITY           SKY/WX    TMP DP  RH WIND       PRES   REMARKS
TWIN CITIES    FRZ RAIN  30  29  96 SE8       29.70F FOG     WCI  22
ST PAUL        LGT SNOW  28  26  92 S6        29.75S FOG     WCI  22
CRYSTAL        MIX PCPN  29  24  82 CALM      29.71F
BLAINE         LGT SNOW  30  28  93 S8        29.70F WCI  23
LAKEVILLE      LGT SNOW  28  27  93 CALM      29.72F
EDEN PRAIRIE   CLOUDY    31  29  92 W6        29.71F FOG     WCI  25
SOUTH ST PAUL  LGT SNOW  29  27  94 S3        29.73S
LAKE ELMO      CLOUDY    28  27  93 S5        29.72F WCI  23
$$
MNZ001>005-007-008-013>017-022>024-027-028-111400-
   Northwest Minnesota

CITY           SKY/WX    TMP DP  RH WIND       PRES   REMARKS
BEMIDJI        LGT SNOW  31  29  92 NW18      29.71R WCI  19
HALLOCK        LGT SNOW  25  21  86 N22G35    29.92R WCI  10
ROSEAU         CLOUDY    25  19  80 N21       29.83R WCI  10
WARROAD        CLOUDY    23  19  86 NW13G21   29.82R WCI  11
THIEF RVR FALL FLURRIES  27  24  89 N26       29.82R WCI  12
CROOKSTON      CLOUDY    28  27  93 N28       29.84R WCI  13
FOSSTON        CLOUDY    28  27  93 N26G33    29.77R WCI  13
DETROIT LAKES  CLOUDY    34  32  93 NW16G22   29.75R WCI  23
MOORHEAD       CLOUDY    36  30  80 N32       29.80R
PARK RAPIDS    CLOUDY    32  30  92 NW13      29.68R WCI  22
MAHNOMEN       FLURRIES  32  31  94 N24       29.75R WCI  19
$$
MNZ006-009>011-018-025>026-111400-
   North Central Minnesota

CITY           SKY/WX    TMP DP  RH WIND       PRES   REMARKS
BAUDETTE       CLOUDY    21  19  92 N10       29.77R WCI  10
FLAG ISLAND    CLOUDY    21  18  86 N17       29.81R WCI   7
INTL FALLS     CLOUDY    20  16  84 N5        29.74R WCI  13
WASKISH        CLOUDY    25  21  86 N9        29.74R WCI  15
BIG FORK       LGT SNOW  23  21  93 CALM      29.69R
GRAND RAPIDS   CLOUDY    23  21  92 CALM      29.70R
ORR            MIX PCPN  18  16  93 CALM      29.68R
COOK           LGT SNOW  19  18  93 CALM      29.70R
WALKER         CLOUDY    30  28  93 NW8       29.69R WCI  23
$$
MNZ012-019>021-037-111400-
   Northeast Minnesota

CITY           SKY/WX    TMP DP  RH WIND       PRES   REMARKS
DULUTH         FLURRIES  20  20 100 S7        29.67F WCI  11
ELY            LGT SNOW  19  18  93 CALM      29.69R
HIBBING        LGT SNOW  19  18  95 CALM      29.68S FOG
EVELETH        LGT SNOW  19  16  86 CALM      29.69S
DULUTH HARBOR  CLOUDY    23  21  93 CALM      29.73F
TWO HARBORS    MIX PCPN  25  19  80 CALM      29.68F
G MARAIS ARPRT LGT SNOW  16  12  86 CALM      29.68F
$$
MNZ029>031-032-039>041-046>048-054>057-064-111400-
   West Central Minnesota

CITY           SKY/WX    TMP DP  RH WIND       PRES   REMARKS
FERGUS FALLS   CLOUDY    34  34 100 N18G24    29.78R WCI  23
MORRIS         CLOUDY    37  34  87 NW18G24   29.74R
ALEXANDRIA     PTCLDY    31  28  89 NW12      29.72R WCI  22
ELBOW LAKE     CLOUDY    33  32  96 W16G24    29.75R FOG     WCI  23
WADENA         CLOUDY    32  30  93 NW9G16    29.70R WCI  24
GLENWOOD       PTCLDY    30  28  93 W9        29.72R WCI  22
BENSON         CLOUDY    37  30  75 N16G22    29.76R
ORTONVILLE     CLOUDY    39  32  75 NW17G28   29.77R
MADISON        CLOUDY    39  36  87 NW15      29.77R
WILLMAR        FAIR      36  30  80 NW14      29.73S
$$
MNZ033>034-036-042>043-049>051-058-059-111400-
   Central Minnesota

CITY           SKY/WX    TMP DP  RH WIND       PRES   REMARKS
ST CLOUD       CLOUDY    30  28  92 S3        29.70F
SAUK CENTRE    FAIR      28  26  92 W5        29.71R WCI  22
PAYNESVILLE    CLOUDY    29  29  97 W5        29.71S WCI  24
AITKIN         CLOUDY    25  23  93 CALM      29.67S
PINE RIVER     CLOUDY    25  23  93 CALM      29.73R
BRAINERD       CLOUDY    28  25  88 S6        29.69S FOG     WCI  22
STAPLES        CLOUDY    28  28 100 CALM      29.69S
LONG PRAIRIE   MOCLDY    28  28 100 CALM      29.70R
LITTLE FALLS   CLOUDY    30  28  93 CALM      29.71S
LITCHFIELD     CLOUDY    32  32 100 CALM      29.71S
BUFFALO        LGT SNOW  30  28  91 CALM      29.72S
MAPLE LAKE     FLURRIES  31  30  94 CALM      29.71F
HUTCHINSON     CLOUDY    32  30  92 CALM      29.71F
$$
MNZ037-044-045-052-053-111400-
   East Central Minnesota

CITY           SKY/WX    TMP DP  RH WIND       PRES   REMARKS
PRINCETON      LGT SNOW  30  28  93 CALM      29.71F
MORA           LGT SNOW  27  27 100 CALM      29.73R
CAMBRIDGE      LGT SNOW  28  27  93 CALM      29.72R VSB 1
RUSH CITY      CLOUDY    26  24  93 CALM      29.73R
MOOSE LAKE     CLOUDY    25  21  86 CALM      29.70R FOG
HINCKLEY       LGT SNOW  27  27 100 S5        29.71F WCI  21
CLOQUET        CLOUDY    19  18  93 CALM      29.68F
MCGREGOR       CLOUDY    27  25  93 CALM      29.68F
$$
MNZ071>073-080-081-089-090-097-098-111400-
   Southwest Minnesota

CITY           SKY/WX    TMP DP  RH WIND       PRES   REMARKS
MONTEVIDEO     DRIZZLE   37  30  75 N20G28    29.75R
GRANITE FALLS  CLOUDY    40  35  82 NW25G31   29.77R
CANBY          CLOUDY    39  32  76 NW22G30   29.79S
MARSHALL       LGT RAIN  37  34  89 NW21      29.76R
REDWOOD FALLS  CLOUDY    38  26  62 NW10      29.72S
OLIVIA         CLOUDY    36  30  80 NW16      29.71F
PIPESTONE      CLOUDY    36  28  75 NW16      29.79S
WINDOM           N/A     36  21  55 W20       29.73S
WORTHINGTON    CLOUDY    36  27  69 NW30G37   29.77R
JACKSON        PTCLDY    34  27  75 MISG      29.73F
TRACY          RAIN      37  34  87 NW25G32   29.76R
$$
MNZ065>067-074>077-082>085-091>093-111400-
   South Central Minnesota

CITY           SKY/WX    TMP DP  RH WIND       PRES   REMARKS
MANKATO        MIX PCPN  31  28  89 S6        29.73S WCI  25
NEW ULM        MOCLDY    34  27  75 W6        29.71F WCI  29
ST JAMES       CLOUDY    37  28  70 W13       29.72F
FAIRMONT       CLOUDY    35  27  72 W14       29.73F WCI  26
GLENCOE        CLOUDY    32  31  98 CALM      29.70S
FARIBAULT      CLOUDY    30  27  86 CALM      29.73R
WASECA         FLURRIES  32  28  86 W7        29.75R WCI  26
ALBERT LEA     CLOUDY    32  25  74 S6        29.72F WCI  26
$$
MNZ078>079-086>088-094>096-111400-
   Southeast Minnesota

CITY           SKY/WX    TMP DP  RH WIND       PRES   REMARKS
ROCHESTER      CLOUDY    28  24  85 S10       29.72F WCI  19
RED WING       CLOUDY    28  23  80 SE3       29.74F
STANTON        CLOUDY    32  28  83 SW5       29.72R WCI  27
DODGE CENTER   CLOUDY    30  25  80 S9        29.70F WCI  22
WINONA         PTCLDY    27  25  93 SE3       29.78F
AUSTIN         CLOUDY    28  23  80 S6        29.73F WCI  22
PRESTON        CLOUDY    27  23  83 S10       29.75F WCI  17
$$
ABBREVIATIONS USED IN REMARKS
   TC - TEMPERATURES IN CELSIUS
  WCI - WIND CHILL INDEX
   HX - HEAT INDEX
  VSB - VISIBILITY
$$




USA.gov is the U.S. government's official web portal to all federal, state and local government web resources and services.